Tracking 21998 objects as of 1-Dec-2020
HD Live streaming from Space Station
objects crossing your sky now

LEASAT 4 PKM

Track LEASAT 4 PKM now!
10-day predictions


NORAD ID: 16001
Int'l Code: 1985-076F
Perigee: 399.1 km
Apogee: 14,153.3 km
Inclination: 27.4 °
Period: 264.4 minutes
Semi major axis: 13647 km
RCS: 3.8918 m2 (large)
Launch date: August 27, 1985
Source: United States (US)
Launch site: AIR FORCE EASTERN TEST RANGE (AFETR)

Note: This is a ROCKET BODY
aabbcc
Your satellite tracking list
Your tracking list is empty




NASA's NSSDC Master Catalog

Two Line Element Set (TLE):
1 16001U 85076F   20335.44715256 +.00000522 +00000-0 +26829-3 0  9990
2 16001 027.3534 240.0583 5039178 111.0349 308.6567 05.44548561681167
Source of the keplerian elements: AFSPC